• în România
  • Lista ţărilor
  • Pe 7 zile
  • Temperatura apei
  • Hartă satelitară
  • Meteo pe hartă
  • Widget-uri
  • user-avatar
    Intrare

    Meteo pe oră la Ischgl

    Astăzi, 23 Ianuarie, Marţi

    Timp Temperatura Precipitaţii Vânt Presiune Umiditate
    00:00 -6°C° 0,6 mm 3 m/s 571 mmHg 96%
    01:00 -6°C° 0 mm 3 m/s 571 mmHg 97%
    02:00 -7°C° 0,3 mm 3 m/s 572 mmHg 96%
    03:00 -7°C° 0,3 mm 3 m/s 572 mmHg 96%
    04:00 -7°C° 0,3 mm 3 m/s 572 mmHg 96%
    05:00 -8°C° 0,3 mm 3 m/s 572 mmHg 96%
    06:00 -7°C° 0,3 mm 2 m/s 573 mmHg 95%
    07:00 -8°C° 0 mm 3 m/s 573 mmHg 95%
    08:00 -8°C° 0,1 mm 3 m/s 574 mmHg 95%
    09:00 -8°C° 0,1 mm 3 m/s 574 mmHg 95%
    10:00 -6°C° 0,1 mm 2 m/s 575 mmHg 94%
    11:00 -6°C° 0 mm 2 m/s 575 mmHg 93%
    12:00 -6°C° 0 mm 2 m/s 575 mmHg 92%
    13:00 -5°C° 0 mm 2 m/s 576 mmHg 91%
    14:00 -5°C° 0 mm 2 m/s 576 mmHg 90%
    15:00 -6°C° 0 mm 2 m/s 576 mmHg 89%
    16:00 -4°C° 0 mm 1 m/s 575 mmHg 88%
    17:00 -7°C° 0 mm 2 m/s 575 mmHg 81%
    18:00 -9°C° 0 mm 2 m/s 575 mmHg 74%
    19:00 -10°C° 0 mm 2 m/s 574 mmHg 67%
    20:00 -10°C° 0 mm 2 m/s 575 mmHg 62%
    21:00 -10°C° 0 mm 2 m/s 575 mmHg 57%
    22:00 -9°C° 0 mm 1 m/s 575 mmHg 52%
    23:00 -9°C° 0 mm 1 m/s 575 mmHg 52%

    Mâine, 24 Ianuarie, Miercuri

    Timp Temperatura Precipitaţii Vânt Presiune Umiditate
    00:00 -9°C° 0 mm 1 m/s 575 mmHg 51%
    01:00 -10°C° 0 mm 2 m/s 575 mmHg 50%
    02:00 -10°C° 0 mm 2 m/s 575 mmHg 50%
    03:00 -10°C° 0 mm 2 m/s 575 mmHg 49%
    04:00 -10°C° 0 mm 2 m/s 575 mmHg 49%
    05:00 -10°C° 0 mm 2 m/s 575 mmHg 48%
    06:00 -10°C° 0 mm 2 m/s 575 mmHg 47%
    07:00 -10°C° 0 mm 2 m/s 575 mmHg 46%
    08:00 -8°C° 0 mm 2 m/s 576 mmHg 51%
    09:00 -7°C° 0 mm 2 m/s 577 mmHg 55%
    10:00 -5°C° 0 mm 2 m/s 577 mmHg 60%
    11:00 -4°C° 0 mm 2 m/s 578 mmHg 67%
    12:00 -3°C° 0 mm 2 m/s 578 mmHg 74%
    13:00 -2°C° 0 mm 2 m/s 578 mmHg 82%
    14:00 -3°C° 0 mm 2 m/s 577 mmHg 81%
    15:00 -3°C° 0 mm 2 m/s 577 mmHg 81%
    16:00 -4°C° 0 mm 2 m/s 576 mmHg 80%
    17:00 -5°C° 0 mm 2 m/s 576 mmHg 77%
    18:00 -8°C° 0 mm 3 m/s 575 mmHg 74%
    19:00 -9°C° 0 mm 3 m/s 575 mmHg 71%
    20:00 -9°C° 0 mm 3 m/s 575 mmHg 70%
    21:00 -9°C° 0 mm 3 m/s 574 mmHg 68%
    22:00 -10°C° 0 mm 3 m/s 574 mmHg 66%
    23:00 -10°C° 0 mm 3 m/s 574 mmHg 65%

    Poimâine, 25 Ianuarie, Joi

    Timp Temperatura Precipitaţii Vânt Presiune Umiditate
    00:00 -10°C° 0 mm 3 m/s 574 mmHg 65%
    01:00 -10°C° 0 mm 3 m/s 574 mmHg 64%
    02:00 -10°C° 0 mm 3 m/s 574 mmHg 65%
    03:00 -10°C° 0 mm 3 m/s 573 mmHg 66%
    04:00 -10°C° 0 mm 3 m/s 573 mmHg 67%
    05:00 -10°C° 0 mm 3 m/s 573 mmHg 68%
    06:00 -9°C° 0 mm 3 m/s 573 mmHg 70%
    07:00 -9°C° 0 mm 3 m/s 573 mmHg 72%
    08:00 -8°C° 0 mm 3 m/s 573 mmHg 74%
    09:00 -7°C° 0 mm 3 m/s 573 mmHg 77%
    10:00 -7°C° 0 mm 3 m/s 574 mmHg 79%
    11:00 -6°C° 0 mm 3 m/s 573 mmHg 83%
    12:00 -5°C° 0 mm 3 m/s 573 mmHg 86%
    13:00 -5°C° 0 mm 3 m/s 573 mmHg 89%
    14:00 -5°C° 0 mm 3 m/s 572 mmHg 89%
    15:00 -5°C° 0 mm 3 m/s 572 mmHg 89%
    16:00 -6°C° 0 mm 3 m/s 572 mmHg 89%
    17:00 -6°C° 0 mm 3 m/s 571 mmHg 88%
    18:00 -7°C° 0 mm 3 m/s 571 mmHg 88%
    19:00 -7°C° 0 mm 3 m/s 571 mmHg 87%
    20:00 -8°C° 0,1 mm 3 m/s 571 mmHg 87%
    21:00 -8°C° 0,1 mm 3 m/s 570 mmHg 87%
    22:00 -8°C° 0,1 mm 3 m/s 570 mmHg 87%
    23:00 -8°C° 0,1 mm 3 m/s 570 mmHg 87%

    26 Ianuarie, Vineri

    Timp Temperatura Precipitaţii Vânt Presiune Umiditate
    00:00 -8°C° 0,1 mm 3 m/s 570 mmHg 87%
    01:00 -8°C° 0,1 mm 3 m/s 569 mmHg 87%
    02:00 -8°C° 0,1 mm 3 m/s 569 mmHg 87%
    03:00 -8°C° 0,1 mm 3 m/s 569 mmHg 87%
    04:00 -8°C° 0,1 mm 3 m/s 568 mmHg 87%
    05:00 -8°C° 0,1 mm 3 m/s 569 mmHg 88%
    06:00 -8°C° 0,1 mm 3 m/s 569 mmHg 88%
    07:00 -8°C° 0,1 mm 3 m/s 569 mmHg 89%
    08:00 -8°C° 0,1 mm 3 m/s 569 mmHg 89%
    09:00 -6°C° 0,1 mm 2 m/s 570 mmHg 90%
    10:00 -6°C° 0,1 mm 2 m/s 570 mmHg 91%
    11:00 -5°C° 0,3 mm 2 m/s 571 mmHg 93%
    12:00 -5°C° 0,3 mm 2 m/s 571 mmHg 94%
    13:00 -5°C° 0,3 mm 2 m/s 571 mmHg 96%
    14:00 -5°C° 1 mm 2 m/s 571 mmHg 96%
    15:00 -6°C° 1 mm 2 m/s 571 mmHg 96%
    16:00 -6°C° 1 mm 2 m/s 571 mmHg 96%
    17:00 -7°C° 1,4 mm 2 m/s 571 mmHg 96%
    18:00 -6°C° 1,4 mm 1 m/s 571 mmHg 97%
    19:00 -7°C° 1,4 mm 1 m/s 571 mmHg 97%
    20:00 -7°C° 1,4 mm 1 m/s 571 mmHg 97%
    21:00 -8°C° 1,4 mm 1 m/s 571 mmHg 97%
    22:00 -9°C° 1,4 mm 2 m/s 571 mmHg 97%
    23:00 -9°C° 1,2 mm 2 m/s 571 mmHg 97%

    27 Ianuarie, Sâmbătă

    Timp Temperatura Precipitaţii Vânt Presiune Umiditate
    00:00 -9°C° 1,2 mm 2 m/s 571 mmHg 97%
    01:00 -10°C° 1,2 mm 2 m/s 571 mmHg 97%
    02:00 -10°C° 1 mm 2 m/s 571 mmHg 97%
    03:00 -10°C° 1 mm 2 m/s 571 mmHg 97%
    04:00 -10°C° 1 mm 2 m/s 571 mmHg 96%
    05:00 -10°C° 1,1 mm 2 m/s 571 mmHg 96%
    06:00 -10°C° 1,1 mm 2 m/s 572 mmHg 96%
    07:00 -10°C° 1,1 mm 2 m/s 572 mmHg 96%
    08:00 -10°C° 0,7 mm 2 m/s 573 mmHg 95%
    09:00 -9°C° 0,7 mm 1 m/s 573 mmHg 94%
    10:00 -8°C° 0,7 mm 1 m/s 574 mmHg 93%
    11:00 -7°C° 0,4 mm 1 m/s 574 mmHg 92%
    12:00 -7°C° 0,4 mm 1 m/s 575 mmHg 91%
    13:00 -6°C° 0,4 mm 1 m/s 575 mmHg 90%
    14:00 -6°C° 0,2 mm 1 m/s 576 mmHg 91%
    15:00 -4°C° 0,2 mm 1 m/s 576 mmHg 92%
    16:00 -4°C° 0,2 mm 1 m/s 576 mmHg 93%
    17:00 -6°C° 0 mm 1 m/s 576 mmHg 93%
    18:00 -7°C° 0 mm 1 m/s 576 mmHg 93%
    19:00 -8°C° 0 mm 1 m/s 576 mmHg 93%
    20:00 -9°C° 0 mm 1 m/s 576 mmHg 91%
    21:00 -10°C° 0 mm 2 m/s 576 mmHg 89%
    22:00 -10°C° 0 mm 2 m/s 576 mmHg 88%
    23:00 -10°C° 0 mm 2 m/s 577 mmHg 87%

    28 Ianuarie, Duminică

    Timp Temperatura Precipitaţii Vânt Presiune Umiditate
    00:00 -10°C° 0 mm 2 m/s 577 mmHg 87%
    01:00 -10°C° 0 mm 2 m/s 577 mmHg 86%
    02:00 -10°C° 0 mm 2 m/s 577 mmHg 86%
    03:00 -10°C° 0 mm 2 m/s 577 mmHg 86%
    04:00 -10°C° 0 mm 2 m/s 577 mmHg 86%
    05:00 -9°C° 0 mm 1 m/s 577 mmHg 85%
    06:00 -9°C° 0 mm 1 m/s 577 mmHg 84%
    07:00 -9°C° 0 mm 1 m/s 578 mmHg 84%
    08:00 -8°C° 0 mm 1 m/s 578 mmHg 83%
    09:00 -6°C° 0 mm 1 m/s 579 mmHg 82%
    10:00 -4°C° 0 mm 1 m/s 580 mmHg 82%
    11:00 -3°C° 0 mm 1 m/s 581 mmHg 85%
    12:00 -2°C° 0 mm 1 m/s 581 mmHg 89%
    13:00 -1°C° 0 mm 1 m/s 581 mmHg 93%
    14:00 -2°C° 0 mm 1 m/s 581 mmHg 92%
    15:00 -2°C° 0 mm 1 m/s 581 mmHg 91%
    16:00 -2°C° 0 mm 1 m/s 580 mmHg 91%
    17:00 -4°C° 0 mm 1 m/s 580 mmHg 85%
    18:00 -6°C° 0 mm 1 m/s 580 mmHg 80%
    19:00 -7°C° 0 mm 1 m/s 579 mmHg 74%
    20:00 -7°C° 0 mm 1 m/s 579 mmHg 71%
    21:00 -7°C° 0 mm 1 m/s 580 mmHg 68%
    22:00 -7°C° 0 mm 1 m/s 580 mmHg 65%
    23:00 -7°C° 0 mm 1 m/s 580 mmHg 68%
    Arată mai mult